Simultaneous Nadir Overpasses (SNOs) Predictions

Prediction of SNOs between GOES-17 and METOP-C Satellite Orbit:

Table of predicted SNOs for the next 14.0 days since TLE Epoch: 5/10/2019
Index Date Time (GOES-17) GOES-17 Lat,Lon METOP-C Lat,Lon Distance(km) Time Diff (sec)
1 05/11/2019 06:24:43 0.01,-137.18 0.73,-133.96 367.24 80
2 05/12/2019 18:43:34 -0.00,-137.21 0.31,-138.51 149.02 80
3 05/13/2019 18:25:36 -0.00,-137.21 -0.83,-133.53 420.25 80
4 05/15/2019 06:44:37 0.00,-137.19 -0.22,-138.12 106.73 80
5 05/16/2019 06:21:19 0.00,-137.18 0.92,-133.13 461.94 80
6 05/17/2019 18:40:10 0.00,-137.20 0.12,-137.69 55.43 80
7 05/20/2019 06:41:13 -0.01,-137.17 -0.03,-137.30 14.26 80
8 05/22/2019 18:39:26 0.01,-137.16 -0.06,-136.86 34.61 80
9 05/24/2019 06:58:27 -0.00,-137.13 -0.97,-141.46 493.02 80




NCC Satellite Simultaneous Nadir Overpasses (SNOs) Prediction Service
